10-09-2022, 00:00:03,    256,    0.0,   11.6,   0.00,   0.00, 1009.2,   98.6, -999.0
10-09-2022, 00:00:13,    256,    0.0,   11.6,   0.00,   0.00, 1009.2,   98.6, -999.0
10-09-2022, 00:00:23,    256,    0.0,   11.5,   0.00,   0.00, 1009.2,   98.7, -999.0
10-09-2022, 00:00:33,    255,    0.0,   11.5,   0.00,   0.00, 1009.2,   98.7, -999.0
10-09-2022, 00:00:43,    256,    0.0,   11.5,   0.00,   0.00, 1009.2,   98.6, -999.0
10-09-2022, 00:00:53,    256,    0.0,   11.5,   0.00,   0.00, 1009.2,   98.6, -999.0
10-09-2022, 00:01:03,    256,    0.0,   11.5,   0.00,   0.00, 1009.2,   98.6, -999.0
10-09-2022, 00:01:13,    256,    0.0,   11.6,   0.00,   0.00, 1009.2,   98.6, -999.0
10-09-2022, 00:01:23,    256,    0.0,   11.5,   0.00,   0.00, 1009.2,   98.7, -999.0
10-09-2022, 00:01:33,    256,    0.0,   11.5,   0.00,   0.00, 1009.2,   98.6, -999.0
10-09-2022, 00:01:43,    256,    0.0,   11.6,   0.00,   0.00, 1009.2,   98.6, -999.0
10-09-2022, 00:01:52,    256,    0.0,   11.6,   0.00,   0.00, 1009.2,   98.7, -999.0
10-09-2022, 00:02:03,    256,    0.0,   11.6,   0.00,   0.00, 1009.2,   98.6, -999.0
10-09-2022, 00:02:13,    256,    0.0,   11.5,   0.00,   0.00, 1009.1,   98.7, -999.0
10-09-2022, 00:02:22,    256,    0.0,   11.6,   0.00,   0.00, 1009.2,   98.6, -999.0
10-09-2022, 00:02:32,    256,    0.0,   11.6,   0.00,   0.00, 1009.2,   98.6, -999.0
10-09-2022, 00:02:43,    256,    0.0,   11.5,   0.00,   0.00, 1009.2,   98.7, -999.0
10-09-2022, 00:02:52,    256,    0.0,   11.6,   0.00,   0.00, 1009.2,   98.6, -999.0
10-09-2022, 00:03:02,    256,    0.0,   11.5,   0.00,   0.00, 1009.2,   98.7, -999.0
10-09-2022, 00:03:12,    256,    0.0,   11.6,   0.00,   0.00, 1009.2,   98.6, -999.0
10-09-2022, 00:03:22,    256,    0.0,   11.6,   0.00,   0.00, 1009.2,   98.5, -999.0
10-09-2022, 00:03:32,    256,    0.0,   11.5,   0.00,   0.00, 1009.2,   98.7, -999.0
10-09-2022, 00:03:42,    256,    0.0,   11.5,   0.00,   0.00, 1009.2,   98.7, -999.0
10-09-2022, 00:03:52,    256,    0.0,   11.5,   0.00,   0.00, 1009.2,   98.7, -999.0
10-09-2022, 00:04:02,    256,    0.0,   11.5,   0.00,   0.00, 1009.2,   98.6, -999.0
10-09-2022, 00:04:12,    256,    0.0,   11.5,   0.00,   0.00, 1009.2,   98.6, -999.0
10-09-2022, 00:04:22,    256,    0.0,   11.5,   0.00,   0.00, 1009.2,   98.6, -999.0
10-09-2022, 00:04:32,    256,    0.0,   11.5,   0.00,   0.00, 1009.2,   98.6, -999.0
10-09-2022, 00:04:42,    256,    0.0,   11.5,   0.00,   0.00, 1009.2,   98.6, -999.0
10-09-2022, 00:04:52,    256,    0.0,   11.5,   0.00,   0.00, 1009.2,   98.6, -999.0
10-09-2022, 00:05:01,    256,    0.0,   11.5,   0.00,   0.00, 1009.2,   98.6, -999.0
10-09-2022, 00:05:12,    256,    0.0,   11.5,   0.00,   0.00, 1009.2,   98.6, -999.0
10-09-2022, 00:05:21,    256,    0.0,   11.5,   0.00,   0.00, 1009.2,   98.6, -999.0
10-09-2022, 00:05:31,    256,    0.0,   11.5,   0.00,   0.00, 1009.2,   98.7, -999.0
10-09-2022, 00:05:41,    256,    0.0,   11.5,   0.00,   0.00, 1009.2,   98.6, -999.0
10-09-2022, 00:05:51,    253,    0.0,   11.3,   0.00,   0.00, 1009.2,   98.6, -999.0
10-09-2022, 00:06:01,    256,    0.0,   11.3,   0.00,   0.00, 1009.2,   98.6, -999.0
10-09-2022, 00:06:11,    256,    0.0,   11.4,   0.00,   0.00, 1009.2,   98.6, -999.0
10-09-2022, 00:06:21,    256,    0.0,   11.5,   0.00,   0.00, 1009.2,   98.6, -999.0
10-09-2022, 00:06:31,    256,    0.0,   11.5,   0.00,   0.00, 1009.2,   98.6, -999.0
10-09-2022, 00:06:41,    256,    0.0,   11.5,   0.00,   0.00, 1009.2,   98.7, -999.0
10-09-2022, 00:06:51,    256,    0.0,   11.4,   0.00,   0.00, 1009.2,   98.6, -999.0
10-09-2022, 00:07:01,    256,    0.0,   11.4,   0.00,   0.00, 1009.2,   98.7, -999.0
10-09-2022, 00:07:11,    256,    0.0,   11.5,   0.00,   0.00, 1009.2,   98.6, -999.0
10-09-2022, 00:07:21,    256,    0.0,   11.4,   0.00,   0.00, 1009.2,   98.6, -999.0
10-09-2022, 00:07:31,    256,    0.0,   11.5,   0.00,   0.00, 1009.2,   98.6, -999.0
10-09-2022, 00:07:41,    256,    0.0,   11.5,   0.00,   0.00, 1009.2,   98.6, -999.0
10-09-2022, 00:07:51,    256,    0.0,   11.4,   0.00,   0.00, 1009.2,   98.6, -999.0
10-09-2022, 00:08:00,    256,    0.0,   11.5,   0.00,   0.00, 1009.2,   98.6, -999.0
10-09-2022, 00:08:10,    256,    0.0,   11.5,   0.00,   0.00, 1009.2,   98.6, -999.0
10-09-2022, 00:08:21,    256,    0.0,   11.5,   0.00,   0.00, 1009.2,   98.6, -999.0
10-09-2022, 00:08:30,    256,    0.0,   11.5,   0.00,   0.00, 1009.2,   98.7, -999.0
10-09-2022, 00:08:40,    256,    0.0,   11.6,   0.00,   0.00, 1009.2,   98.7, -999.0
10-09-2022, 00:08:50,    256,    0.0,   11.5,   0.00,   0.00, 1009.2,   98.6, -999.0
10-09-2022, 00:09:00,    256,    0.0,   11.5,   0.00,   0.00, 1009.2,   98.6, -999.0
10-09-2022, 00:09:10,    256,    0.0,   11.5,   0.00,   0.00, 1009.2,   98.6, -999.0
10-09-2022, 00:09:20,    256,    0.0,   11.5,   0.00,   0.00, 1009.2,   98.6, -999.0
10-09-2022, 00:09:30,    257,    0.0,   11.5,   0.00,   0.00, 1009.2,   98.6, -999.0
10-09-2022, 00:09:40,    256,    0.0,   11.6,   0.00,   0.00, 1009.2,   98.6, -999.0
10-09-2022, 00:09:50,    256,    0.0,   11.6,   0.00,   0.00, 1009.2,   98.6, -999.0
10-09-2022, 00:10:00,    256,    0.0,   11.5,   0.00,   0.00, 1009.2,   98.6, -999.0
10-09-2022, 00:10:10,    256,    0.0,   11.5,   0.00,   0.00, 1009.2,   98.6, -999.0
10-09-2022, 00:10:20,    256,    0.0,   11.4,   0.00,   0.00, 1009.2,   98.6, -999.0
10-09-2022, 00:10:30,    256,    0.0,   11.5,   0.00,   0.00, 1009.2,   98.6, -999.0
10-09-2022, 00:10:39,    256,    0.0,   11.5,   0.00,   0.00, 1009.2,   98.6, -999.0
10-09-2022, 00:10:50,    256,    0.0,   11.5,   0.00,   0.00, 1009.2,   98.6, -999.0
10-09-2022, 00:11:00,    256,    0.0,   11.5,   0.00,   0.00, 1009.2,   98.6, -999.0
10-09-2022, 00:11:09,    256,    0.0,   11.5,   0.00,   0.00, 1009.2,   98.7, -999.0
10-09-2022, 00:11:19,    256,    0.0,   11.4,   0.00,   0.00, 1009.2,   98.6, -999.0
10-09-2022, 00:11:30,    256,    0.0,   11.4,   0.00,   0.00, 1009.2,   98.7, -999.0
10-09-2022, 00:11:39,    256,    0.0,   11.5,   0.00,   0.00, 1009.2,   98.6, -999.0
10-09-2022, 00:11:49,    255,    0.0,   11.5,   0.00,   0.00, 1009.2,   98.6, -999.0
10-09-2022, 00:11:59,    256,    0.0,   11.5,   0.00,   0.00, 1009.2,   98.6, -999.0
10-09-2022, 00:12:09,    256,    0.0,   11.5,   0.00,   0.00, 1009.2,   98.7, -999.0
10-09-2022, 00:12:19,    256,    0.0,   11.5,   0.00,   0.00, 1009.2,   98.6, -999.0
10-09-2022, 00:12:29,    256,    0.0,   11.4,   0.00,   0.00, 1009.2,   98.6, -999.0
10-09-2022, 00:12:39,    256,    0.0,   11.3,   0.00,   0.00, 1009.2,   98.6, -999.0
10-09-2022, 00:12:49,    256,    0.0,   11.4,   0.00,   0.00, 1009.2,   98.6, -999.0
10-09-2022, 00:12:59,    256,    0.0,   11.4,   0.00,   0.00, 1009.2,   98.6, -999.0
10-09-2022, 00:13:09,    256,    0.0,   11.3,   0.00,   0.00, 1009.2,   98.6, -999.0
10-09-2022, 00:13:19,    256,    0.0,   11.4,   0.00,   0.00, 1009.2,   98.7, -999.0
10-09-2022, 00:13:29,    256,    0.0,   11.3,   0.00,   0.00, 1009.2,   98.6, -999.0
10-09-2022, 00:13:39,    256,    0.0,   11.4,   0.00,   0.00, 1009.2,   98.6, -999.0
10-09-2022, 00:13:48,    256,    0.0,   11.4,   0.00,   0.00, 1009.2,   98.7, -999.0
10-09-2022, 00:13:59,    256,    0.0,   11.5,   0.00,   0.00, 1009.2,   98.6, -999.0
10-09-2022, 00:14:09,    256,    0.0,   11.4,   0.00,   0.00, 1009.2,   98.6, -999.0
10-09-2022, 00:14:18,    256,    0.0,   11.4,   0.00,   0.00, 1009.2,   98.6, -999.0
10-09-2022, 00:14:29,    256,    0.0,   11.4,   0.00,   0.00, 1009.2,   98.6, -999.0
10-09-2022, 00:14:38,    256,    0.0,   11.4,   0.00,   0.00, 1009.2,   98.6, -999.0
10-09-2022, 00:14:48,    256,    0.0,   11.4,   0.00,   0.00, 1009.2,   98.6, -999.0
10-09-2022, 00:14:58,    256,    0.0,   11.4,   0.00,   0.00, 1009.2,   98.7, -999.0
10-09-2022, 00:15:08,    256,    0.0,   11.4,   0.00,   0.00, 1009.2,   98.6, -999.0
10-09-2022, 00:15:18,    256,    0.0,   11.4,   0.00,   0.00, 1009.2,   98.6, -999.0
10-09-2022, 00:15:28,    256,    0.0,   11.4,   0.00,   0.00, 1009.2,   98.6, -999.0
10-09-2022, 00:15:38,    256,    0.0,   11.4,   0.00,   0.00, 1009.2,   98.6, -999.0
10-09-2022, 00:15:48,    256,    0.0,   11.4,   0.00,   0.00, 1009.2,   98.6, -999.0
10-09-2022, 00:15:58,    256,    0.0,   11.4,   0.00,   0.00, 1009.2,   98.6, -999.0
10-09-2022, 00:16:08,    256,    0.0,   11.2,   0.00,   0.00, 1009.2,   98.7, -999.0
10-09-2022, 00:16:18,    256,    0.0,   11.4,   0.00,   0.00, 1009.2,   98.7, -999.0
10-09-2022, 00:16:28,    256,    0.0,   11.4,   0.00,   0.00, 1009.2,   98.7, -999.0
10-09-2022, 00:16:38,    256,    0.0,   11.4,   0.00,   0.00, 1009.2,   98.6, -999.0
10-09-2022, 00:16:48,    256,    0.0,   11.4,   0.00,   0.00, 1009.2,   98.7, -999.0
10-09-2022, 00:16:57,    256,    0.0,   11.4,   0.00,   0.00, 1009.2,   98.7, -999.0
10-09-2022, 00:17:08,    256,    0.0,   11.4,   0.00,   0.00, 1009.2,   98.6, -999.0
10-09-2022, 00:17:17,    255,    0.0,   11.4,   0.00,   0.00, 1009.2,   98.7, -999.0
10-09-2022, 00:17:27,    255,    0.0,   11.4,   0.00,   0.00, 1009.2,   98.6, -999.0
10-09-2022, 00:17:38,    256,    0.0,   11.4,   0.00,   0.00, 1009.2,   98.7, -999.0
10-09-2022, 00:17:47,    255,    0.0,   11.4,   0.00,   0.00, 1009.2,   98.6, -999.0
10-09-2022, 00:17:57,    256,    0.0,   11.4,   0.00,   0.00, 1009.2,   98.7, -999.0
10-09-2022, 00:18:07,    255,    0.0,   11.4,   0.00,   0.00, 1009.2,   98.6, -999.0
10-09-2022, 00:18:17,    255,    0.0,   11.4,   0.00,   0.00, 1009.2,   98.6, -999.0
10-09-2022, 00:18:27,    255,    0.0,   11.4,   0.00,   0.00, 1009.2,   98.7, -999.0
10-09-2022, 00:18:37,    255,    0.0,   11.4,   0.00,   0.00, 1009.2,   98.7, -999.0
10-09-2022, 00:18:47,    255,    0.0,   11.4,   0.00,   0.00, 1009.2,   98.7, -999.0
10-09-2022, 00:18:57,    255,    0.0,   11.4,   0.00,   0.00, 1009.2,   98.6, -999.0
10-09-2022, 00:19:07,    255,    0.0,   11.4,   0.00,   0.00, 1009.2,   98.6, -999.0
10-09-2022, 00:19:17,    255,    0.0,   11.4,   0.00,   0.00, 1009.2,   98.7, -999.0
10-09-2022, 00:19:27,    255,    0.0,   11.4,   0.00,   0.00, 1009.2,   98.6, -999.0
10-09-2022, 00:19:37,    255,    0.0,   11.3,   0.00,   0.00, 1009.2,   98.6, -999.0
10-09-2022, 00:19:47,    255,    0.0,   11.4,   0.00,   0.00, 1009.2,   98.6, -999.0
10-09-2022, 00:19:56,    255,    0.0,   11.4,   0.00,   0.00, 1009.2,   98.6, -999.0
10-09-2022, 00:20:07,    255,    0.0,   11.3,   0.00,   0.00, 1009.2,   98.6, -999.0
10-09-2022, 00:20:17,    255,    0.0,   11.4,   0.00,   0.01, 1009.2,   98.6, -999.0
10-09-2022, 00:20:26,    255,    0.0,   11.4,   0.00,   0.00, 1009.2,   98.6, -999.0
10-09-2022, 00:20:36,    255,    0.0,   11.4,   0.00,   0.00, 1009.2,   98.6, -999.0
10-09-2022, 00:20:47,    255,    0.0,   11.3,   0.00,   0.00, 1009.2,   98.7, -999.0
10-09-2022, 00:20:56,    255,    0.0,   11.4,   0.00,   0.00, 1009.2,   98.6, -999.0
10-09-2022, 00:21:06,    251,    0.0,   11.4,   0.00,   0.00, 1009.2,   98.6, -999.0
10-09-2022, 00:21:16,    255,    0.0,   11.4,   0.00,   0.00, 1009.2,   98.6, -999.0
10-09-2022, 00:21:26,    256,    0.0,   11.3,   0.00,   0.00, 1009.2,   98.6, -999.0
10-09-2022, 00:21:36,    255,    0.0,   11.4,   0.00,   0.00, 1009.2,   98.6, -999.0
10-09-2022, 00:21:46,    255,    0.0,   11.4,   0.00,   0.00, 1009.2,   98.7, -999.0
10-09-2022, 00:21:56,    254,    0.0,   11.4,   0.00,   0.00, 1009.2,   98.7, -999.0
10-09-2022, 00:22:06,    255,    0.0,   11.3,   0.00,   0.00, 1009.2,   98.6, -999.0
10-09-2022, 00:22:16,    255,    0.0,   11.3,   0.00,   0.00, 1009.2,   98.7, -999.0
10-09-2022, 00:22:26,    255,    0.0,   11.3,   0.00,   0.00, 1009.2,   98.6, -999.0
10-09-2022, 00:22:35,    255,    0.0,   11.3,   0.00,   0.00, 1009.2,   98.7, -999.0
10-09-2022, 00:22:46,    255,    0.0,   11.3,   0.00,   0.00, 1009.3,   98.6, -999.0
10-09-2022, 00:22:56,    255,    0.0,   11.3,   0.00,   0.00, 1009.2,   98.6, -999.0
10-09-2022, 00:23:05,    255,    0.0,   11.3,   0.00,   0.00, 1009.2,   98.7, -999.0
10-09-2022, 00:23:16,    255,    0.0,   11.3,   0.00,   0.00, 1009.2,   98.7, -999.0
10-09-2022, 00:23:26,    255,    0.0,   11.2,   0.00,   0.00, 1009.2,   98.6, -999.0
10-09-2022, 00:23:35,    255,    0.0,   11.2,   0.00,   0.00, 1009.2,   98.7, -999.0
10-09-2022, 00:23:45,    255,    0.0,   11.3,   0.00,   0.00, 1009.2,   98.6, -999.0
10-09-2022, 00:23:56,    255,    0.0,   11.3,   0.00,   0.00, 1009.2,   98.6, -999.0
10-09-2022, 00:24:05,    242,    0.0,   11.3,   0.00,   0.00, 1009.2,   98.5, -999.0
10-09-2022, 00:24:15,    242,    0.0,   11.3,   0.00,   0.00, 1009.2,   98.6, -999.0
10-09-2022, 00:24:25,    243,    0.0,   11.2,   0.00,   0.00, 1009.2,   98.6, -999.0
10-09-2022, 00:24:35,    243,    0.0,   11.2,   0.00,   0.00, 1009.2,   98.6, -999.0
10-09-2022, 00:24:45,    246,    0.0,   11.2,   0.00,   0.00, 1009.3,   98.6, -999.0
10-09-2022, 00:24:55,    250,    0.0,   11.2,   0.00,   0.00, 1009.2,   98.6, -999.0
10-09-2022, 00:25:05,    247,    0.0,   11.2,   0.00,   0.00, 1009.2,   98.6, -999.0
10-09-2022, 00:25:15,    248,    0.5,   11.2,   0.00,   0.00, 1009.3,   98.7, -999.0
10-09-2022, 00:25:25,    253,    2.1,   11.3,   0.00,   0.00, 1009.4,   99.0, -999.0
10-09-2022, 00:25:35,    256,    1.6,   11.3,   0.00,   0.00, 1009.4,   99.0, -999.0
10-09-2022, 00:25:44,    254,    1.0,   11.3,   0.00,   0.00, 1009.4,   98.9, -999.0
10-09-2022, 00:25:55,    253,    0.3,   11.2,   0.00,   0.00, 1009.3,   98.9, -999.0
10-09-2022, 00:26:05,    254,    0.5,   11.3,   0.00,   0.00, 1009.4,   99.0, -999.0
10-09-2022, 00:26:14,    247,    0.8,   11.2,   0.00,   0.00, 1009.3,   98.9, -999.0
10-09-2022, 00:26:25,    264,    1.9,   11.3,   0.00,   0.00, 1009.4,   99.0, -999.0
10-09-2022, 00:26:35,    256,    1.4,   11.3,   0.00,   0.00, 1009.4,   99.0, -999.0
10-09-2022, 00:26:44,    258,    1.0,   11.2,   0.00,   0.00, 1009.4,   99.0, -999.0
10-09-2022, 00:26:54,    263,    0.6,   11.2,   0.00,   0.00, 1009.3,   98.9, -999.0
10-09-2022, 00:27:04,    265,    1.5,   11.2,   0.00,   0.00, 1009.4,   99.0, -999.0
10-09-2022, 00:27:14,    243,    1.5,   11.2,   0.00,   0.00, 1009.4,   99.1, -999.0
10-09-2022, 00:27:24,    242,    0.8,   11.2,   0.00,   0.00, 1009.3,   98.9, -999.0
10-09-2022, 00:27:34,    242,    0.0,   11.1,   0.00,   0.00, 1009.3,   98.6, -999.0
10-09-2022, 00:27:44,    237,    0.5,   11.1,   0.00,   0.00, 1009.3,   98.9, -999.0
10-09-2022, 00:27:54,    237,    0.0,   11.1,   0.00,   0.00, 1009.3,   98.7, -999.0
10-09-2022, 00:28:04,    249,    0.4,   11.1,   0.00,   0.00, 1009.3,   98.8, -999.0
10-09-2022, 00:28:14,    260,    1.3,   11.2,   0.00,   0.00, 1009.4,   99.0, -999.0
10-09-2022, 00:28:24,    260,    1.0,   11.1,   0.00,   0.00, 1009.4,   99.0, -999.0
10-09-2022, 00:28:34,    260,    0.5,   11.2,   0.00,   0.00, 1009.3,   99.0, -999.0
10-09-2022, 00:28:44,    260,    0.1,   11.1,   0.00,   0.00, 1009.3,   98.7, -999.0
10-09-2022, 00:28:54,    258,    0.0,   11.1,   0.00,   0.00, 1009.2,   98.7, -999.0
10-09-2022, 00:29:04,    259,    0.2,   11.2,   0.00,   0.00, 1009.3,   98.9, -999.0
10-09-2022, 00:29:14,    258,    0.1,   11.2,   0.00,   0.00, 1009.2,   98.8, -999.0
10-09-2022, 00:29:23,    258,    0.0,   11.2,   0.00,   0.00, 1009.2,   98.7, -999.0
10-09-2022, 00:29:34,    258,    0.7,   11.2,   0.00,   0.00, 1009.3,   99.0, -999.0
10-09-2022, 00:29:43,    267,    1.3,   11.1,   0.00,   0.00, 1009.4,   98.9, -999.0
10-09-2022, 00:29:53,    269,    1.3,   11.2,   0.00,   0.00, 1009.4,   99.0, -999.0
10-09-2022, 00:30:03,    277,    1.4,   11.2,   0.00,   0.00, 1009.4,   99.0, -999.0
10-09-2022, 00:30:13,    277,    1.0,   11.2,   0.00,   0.00, 1009.4,   99.0, -999.0
10-09-2022, 00:30:23,    277,    1.4,   11.2,   0.00,   0.00, 1009.4,   99.0, -999.0
10-09-2022, 00:30:33,    280,    1.4,   11.2,   0.00,   0.00, 1009.4,   99.0, -999.0
10-09-2022, 00:30:43,    280,    0.9,   11.1,   0.00,   0.00, 1009.4,   99.0, -999.0
10-09-2022, 00:30:53,    280,    0.2,   11.1,   0.00,   0.00, 1009.3,   98.9, -999.0
10-09-2022, 00:31:03,    280,    0.3,   11.2,   0.00,   0.00, 1009.3,   98.9, -999.0
10-09-2022, 00:31:13,    280,    0.1,   11.0,   0.00,   0.00, 1009.2,   98.7, -999.0
10-09-2022, 00:31:23,    227,    0.5,   11.1,   0.00,   0.00, 1009.3,   98.9, -999.0
10-09-2022, 00:31:33,    239,    1.2,   11.1,   0.00,   0.00, 1009.4,   99.1, -999.0
10-09-2022, 00:31:45,    241,    1.1,   11.2,   0.00,   0.00, 1009.4,   99.0, -999.0
10-09-2022, 00:31:52,    242,    0.7,   11.2,   0.00,   0.00, 1009.4,   99.0, -999.0
10-09-2022, 00:32:03,    280,    1.8,   11.2,   0.00,   0.00, 1009.4,   99.0, -999.0
10-09-2022, 00:32:13,    266,    0.4,   11.1,   0.00,   0.00, 1009.3,   98.9, -999.0
10-09-2022, 00:32:22,    236,    1.6,   11.2,   0.00,   0.00, 1009.3,   99.0, -999.0
10-09-2022, 00:32:32,    243,    0.6,   11.2,   0.00,   0.00, 1009.3,   99.1, -999.0
10-09-2022, 00:32:43,    244,    0.0,   11.1,   0.00,   0.00, 1009.2,   98.7, -999.0
10-09-2022, 00:32:52,    244,    0.0,   11.0,   0.00,   0.00, 1009.2,   98.6, -999.0
10-09-2022, 00:33:02,    237,    0.0,   11.1,   0.00,   0.00, 1009.2,   98.7, -999.0
10-09-2022, 00:33:12,    237,    0.0,   11.0,   0.00,   0.00, 1009.2,   98.7, -999.0
10-09-2022, 00:33:22,    237,    0.0,   11.0,   0.00,   0.00, 1009.2,   98.6, -999.0
10-09-2022, 00:33:32,    237,    0.0,   11.1,   0.00,   0.00, 1009.2,   98.6, -999.0
10-09-2022, 00:33:42,    237,    0.0,   11.1,   0.00,   0.00, 1009.2,   98.6, -999.0
10-09-2022, 00:33:52,    237,    0.0,   11.1,   0.00,   0.00, 1009.2,   98.7, -999.0
10-09-2022, 00:34:02,    237,    0.0,   11.1,   0.00,   0.00, 1009.2,   98.7, -999.0
10-09-2022, 00:34:12,    242,    0.2,   11.1,   0.00,   0.00, 1009.3,   98.8, -999.0
10-09-2022, 00:34:22,    242,    0.6,   11.2,   0.00,   0.00, 1009.4,   99.0, -999.0
10-09-2022, 00:34:32,    242,    0.6,   11.1,   0.00,   0.00, 1009.4,   98.9, -999.0
10-09-2022, 00:34:42,    248,    0.3,   11.1,   0.00,   0.00, 1009.3,   98.8, -999.0
10-09-2022, 00:34:52,    251,    0.1,   11.1,   0.00,   0.00, 1009.3,   98.8, -999.0
10-09-2022, 00:35:01,    253,    1.4,   11.1,   0.00,   0.00, 1009.4,   99.0, -999.0
10-09-2022, 00:35:12,    253,    1.6,   11.2,   0.00,   0.00, 1009.4,   99.0, -999.0
10-09-2022, 00:35:22,    257,    1.1,   11.2,   0.00,   0.00, 1009.4,   99.0, -999.0
10-09-2022, 00:35:31,    256,    0.7,   11.1,   0.00,   0.00, 1009.4,   99.0, -999.0
10-09-2022, 00:35:41,    257,    1.0,   11.1,   0.00,   0.00, 1009.4,   99.0, -999.0
10-09-2022, 00:35:51,    257,    0.4,   11.1,   0.00,   0.00, 1009.3,   98.9, -999.0
10-09-2022, 00:36:01,    257,    0.3,   11.1,   0.00,   0.00, 1009.3,   98.9, -999.0
10-09-2022, 00:36:11,    256,    0.1,   11.0,   0.00,   0.00, 1009.2,   98.8, -999.0
10-09-2022, 00:36:21,    257,    0.0,   10.9,   0.00,   0.00, 1009.2,   98.6, -999.0
10-09-2022, 00:36:31,    252,    0.1,   11.1,   0.00,   0.00, 1009.3,   98.8, -999.0
10-09-2022, 00:36:41,    253,    0.3,   11.1,   0.00,   0.00, 1009.3,   98.9, -999.0
10-09-2022, 00:36:51,    252,    0.4,   11.1,   0.00,   0.00, 1009.4,   98.9, -999.0
10-09-2022, 00:37:01,    252,    0.0,   11.2,   0.00,   0.00, 1009.3,   98.7, -999.0
10-09-2022, 00:37:11,    251,    0.3,   11.0,   0.00,   0.00, 1009.3,   98.8, -999.0
10-09-2022, 00:37:21,    256,    0.2,   11.2,   0.00,   0.00, 1009.3,   98.9, -999.0
10-09-2022, 00:37:31,    257,    1.2,   11.3,   0.00,   0.00, 1009.4,   99.0, -999.0
10-09-2022, 00:37:41,    256,    0.1,   11.2,   0.00,   0.00, 1009.3,   98.9, -999.0
10-09-2022, 00:37:51,    256,    0.0,   11.1,   0.00,   0.00, 1009.3,   98.6, -999.0
10-09-2022, 00:38:01,    256,    0.0,   11.1,   0.00,   0.00, 1009.3,   98.6, -999.0
10-09-2022, 00:38:10,    256,    0.0,   11.1,   0.00,   0.00, 1009.3,   98.6, -999.0
10-09-2022, 00:38:21,    260,    0.0,   11.1,   0.00,   0.00, 1009.3,   98.7, -999.0
10-09-2022, 00:38:30,    260,    0.0,   11.1,   0.00,   0.00, 1009.3,   98.6, -999.0
10-09-2022, 00:38:40,    260,    0.0,   11.0,   0.00,   0.00, 1009.3,   98.6, -999.0
10-09-2022, 00:38:51,    260,    0.0,   11.0,   0.00,   0.00, 1009.3,   98.6, -999.0
10-09-2022, 00:39:00,    260,    0.0,   11.0,   0.00,   0.00, 1009.3,   98.7, -999.0
10-09-2022, 00:39:10,    260,    0.0,   11.1,   0.00,   0.00, 1009.3,   98.7, -999.0
10-09-2022, 00:39:20,    258,    0.0,   11.0,   0.00,   0.00, 1009.3,   98.6, -999.0
10-09-2022, 00:39:30,    260,    0.0,   11.1,   0.00,   0.00, 1009.3,   98.6, -999.0
10-09-2022, 00:39:40,    259,    0.0,   11.1,   0.00,   0.00, 1009.3,   98.6, -999.0
10-09-2022, 00:39:51,    259,    0.0,   11.1,   0.00,   0.00, 1009.3,   98.6, -999.0
10-09-2022, 00:40:00,    260,    0.0,   11.1,   0.00,   0.00, 1009.3,   98.7, -999.0
10-09-2022, 00:40:10,    259,    0.4,   11.1,   0.00,   0.00, 1009.4,   99.0, -999.0
10-09-2022, 00:40:20,    260,    0.7,   11.1,   0.00,   0.00, 1009.4,   98.9, -999.0
10-09-2022, 00:40:30,    259,    0.0,   11.1,   0.00,   0.00, 1009.3,   98.8, -999.0
10-09-2022, 00:40:40,    256,    0.0,   11.0,   0.00,   0.00, 1009.3,   98.7, -999.0
10-09-2022, 00:40:50,    245,    0.9,   11.2,   0.00,   0.00, 1009.4,   99.0, -999.0
10-09-2022, 00:41:00,    245,    0.0,   11.0,   0.00,   0.00, 1009.3,   98.7, -999.0
10-09-2022, 00:41:09,    253,    0.4,   11.1,   0.00,   0.00, 1009.3,   98.9, -999.0
10-09-2022, 00:41:20,    256,    0.9,   11.1,   0.00,   0.00, 1009.4,   99.0, -999.0
10-09-2022, 00:41:30,    255,    0.2,   11.1,   0.00,   0.00, 1009.4,   99.0, -999.0
10-09-2022, 00:41:39,    255,    0.0,   11.0,   0.00,   0.00, 1009.3,   98.6, -999.0
10-09-2022, 00:41:49,    255,    0.0,   11.0,   0.00,   0.00, 1009.3,   98.7, -999.0
10-09-2022, 00:42:00,    255,    0.1,   11.1,   0.00,   0.00, 1009.3,   98.8, -999.0
10-09-2022, 00:42:09,    255,    0.2,   11.0,   0.00,   0.00, 1009.4,   98.8, -999.0
10-09-2022, 00:42:19,    249,    1.5,   11.1,   0.00,   0.00, 1009.4,   99.0, -999.0
10-09-2022, 00:42:29,    249,    0.0,   11.0,   0.00,   0.00, 1009.3,   98.7, -999.0
10-09-2022, 00:42:39,    249,    0.0,   10.9,   0.00,   0.00, 1009.3,   98.6, -999.0
10-09-2022, 00:42:49,    249,    0.0,   10.9,   0.00,   0.00, 1009.3,   98.7, -999.0
10-09-2022, 00:42:59,    250,    0.1,   11.0,   0.00,   0.00, 1009.4,   98.9, -999.0
10-09-2022, 00:43:09,    249,    0.7,   11.1,   0.00,   0.00, 1009.5,   99.0, -999.0
10-09-2022, 00:43:19,    251,    0.0,   11.0,   0.00,   0.00, 1009.4,   98.6, -999.0
10-09-2022, 00:43:29,    251,    0.0,   10.9,   0.00,   0.00, 1009.3,   98.6, -999.0
10-09-2022, 00:43:39,    252,    0.0,   11.0,   0.00,   0.00, 1009.3,   98.6, -999.0
10-09-2022, 00:43:49,    254,    0.0,   11.0,   0.00,   0.00, 1009.3,   98.6, -999.0
10-09-2022, 00:43:59,    254,    0.0,   10.9,   0.00,   0.00, 1009.3,   98.7, -999.0
10-09-2022, 00:44:09,    253,    0.0,   10.9,   0.00,   0.00, 1009.3,   98.6, -999.0
10-09-2022, 00:44:18,    254,    0.0,   10.9,   0.00,   0.00, 1009.3,   98.6, -999.0
10-09-2022, 00:44:29,    254,    0.0,   10.9,   0.00,   0.00, 1009.3,   98.6, -999.0
10-09-2022, 00:44:39,    225,    0.0,   11.0,   0.00,   0.00, 1009.3,   98.7, -999.0
10-09-2022, 00:44:48,    237,    0.6,   11.0,   0.00,   0.00, 1009.4,   98.9, -999.0
10-09-2022, 00:44:58,    258,    1.0,   11.1,   0.00,   0.00, 1009.4,   99.1, -999.0
10-09-2022, 00:45:08,    258,    0.7,   11.1,   0.00,   0.00, 1009.4,   99.0, -999.0
10-09-2022, 00:45:18,    238,    1.2,   11.1,   0.00,   0.00, 1009.4,   98.9, -999.0
10-09-2022, 00:45:28,    241,    0.4,   11.0,   0.00,   0.00, 1009.4,   98.9, -999.0
10-09-2022, 00:45:38,    242,    0.1,   11.0,   0.00,   0.00, 1009.3,   98.7, -999.0
10-09-2022, 00:45:48,    243,    0.1,   11.0,   0.00,   0.00, 1009.3,   98.7, -999.0
10-09-2022, 00:45:58,    243,    0.0,   10.9,   0.00,   0.00, 1009.3,   98.7, -999.0
10-09-2022, 00:46:08,    243,    0.0,   10.9,   0.00,   0.00, 1009.3,   98.6, -999.0
10-09-2022, 00:46:18,    245,    1.1,   11.0,   0.00,   0.00, 1009.4,   99.0, -999.0
10-09-2022, 00:46:28,    230,    1.3,   11.0,   0.00,   0.00, 1009.4,   99.0, -999.0
10-09-2022, 00:46:38,    251,    0.9,   11.1,   0.00,   0.00, 1009.4,   99.0, -999.0